Location: Arbon
(43.0005°N, 0.7472°E)
Time: 10:38:19
(UTC+00:00)

SR - Pass Details

Date: 27 November 2020
Orbit: 575 x 880 km, 66.7° (Epoch: 21 January)

Event Time Altitude Azimuth Distance (km) Brightness Sun altitude
Rises 03:15:00 0° 331° (NNW) 3,176 - -41.4°
Reaches altitude 10° 03:17:20 10° 335° (NNW) 2,296 - -40.9°
Maximum altitude 03:22:35 63° 56° (ENE) 899 - -40.0°
Exits shadow 03:27:25 14° 136° (SE) 2,161 ? -39.1°
Drops below altitude 10° 03:28:14 10° 138° (SE) 2,461 ? -39.0°
Sets 03:30:48 0° 141° (SE) 3,422 ? -38.5°
